This is the latest recevied weather packets stored in our database for station/object KI6AOK. If no packets are shown the sender has not sent any weather packets the latest 10 day(s).
| Time | Temp. | Humidity | Pressure | Rain* | Wind** | Luminosity | Snow |
|---|---|---|---|---|---|---|---|
| 1777084841 | 16.11° C | 72% | 1012.3 hPa | 0 mm | - | 0 W/m² | - |
| 1777084537 | 16.11° C | 73% | 1012.1 hPa | 0 mm | - | 0 W/m² | - |
| 1777084232 | 16.11° C | 72% | 1012.4 hPa | 0 mm | - | 1 W/m² | - |
| 1777083928 | 16.11° C | 72% | 1012.2 hPa | 0 mm | - | 2 W/m² | - |
| 1777083625 | 16.11° C | 71% | 1012.2 hPa | 0 mm | - | 4 W/m² | - |
| 1777083321 | 16.11° C | 71% | 1012.2 hPa | 0 mm | - | 7 W/m² | - |
| 1777083017 | 16.67° C | 71% | 1012.3 hPa | 0 mm | - | 10 W/m² | - |
| 1777082712 | 16.67° C | 71% | 1012.2 hPa | 0 mm | - | 14 W/m² | - |
| 1777082409 | 16.67° C | 71% | 1012.3 hPa | 0 mm | - | 17 W/m² | - |
| 1777082108 | 16.67° C | 70% | 1012.2 hPa | 0 mm | - | 25 W/m² | - |
| 1777081804 | 16.67° C | 70% | 1012.3 hPa | 0 mm | - | 27 W/m² | - |
| 1777081499 | 16.67° C | 70% | 1012.1 hPa | 0 mm | - | 31 W/m² | - |
| 1777081195 | 17.22° C | 69% | 1012.2 hPa | 0 mm | - | 35 W/m² | - |
| 1777080894 | 17.22° C | 68% | 1012.2 hPa | 0 mm | - | 37 W/m² | - |
| 1777080589 | 18.33° C | 66% | 1012.1 hPa | 0 mm | - | 39 W/m² | - |
| 1777080285 | 19.44° C | 62% | 1012 hPa | 0 mm | - | 42 W/m² | - |
| 1777079984 | 20° C | 61% | 1011.9 hPa | 0 mm | - | 71 W/m² | - |
| 1777079683 | 19.44° C | 62% | 1011.8 hPa | 0 mm | - | 80 W/m² | - |
| 1777079379 | 20° C | 61% | 1011.6 hPa | 0 mm | - | 90 W/m² | - |
| 1777079075 | 20° C | 57% | 1011.6 hPa | 0 mm | - | 99 W/m² | - |
| 1777078772 | 20.56° C | 57% | 1011.5 hPa | 0 mm | - | 92 W/m² | - |
| 1777078469 | 21.11° C | 55% | 1011.5 hPa | 0 mm | - | 123 W/m² | - |
| 1777078168 | 21.11° C | 55% | 1011.5 hPa | 0 mm | - | 136 W/m² | - |
| 1777077863 | 21.11° C | 55% | 1011.5 hPa | 0 mm | - | 152 W/m² | - |
| 1777077561 | 21.67° C | 55% | 1011.5 hPa | 0 mm | - | 168 W/m² | - |
* Rain latest hour (hover to see other rain measurements)
** Current wind speed in m/s (hover to see current wind gust speed)